铱星星座 145星 (IRIDIUM 145)

导读

IRIDIUM 145(铱星145)是美国铱星系统的新一代通信卫星,于北京时间2018年3月30日发射入轨。它隶属于铱星星座二期部署任务,旨在接替老化的初代卫星,为全球提供稳定的 voice、数据通信服务,覆盖极地、远洋等偏远区域。该卫星运行在近地轨道,支持北斗之外的全球卫星通信网络,是美国低轨卫星通信系统的重要组成部分,保障了全球移动通信、应急通信等领域的连接能力。

基本信息
目录编号:
43253
目录名称:
IRIDIUM 145
国际标识:
2018-030E
轨道中心:
EARTH
卫星名称:
铱星星座 145星
卫星全名:
铱星星座 145星 (IRIDIUM 145)
卫星状态:
在轨 (已飞行2996 天)
发射日期:
2018-03-30 UTC
国别 :
美国 (US)
星等 :
--
轨道信息
数据来源 国际轨道数据 AOE轨道数据
星历时间 2026-06-12T15:24:35+0800
12小时前
查看轨道信息
2026-06-11T06:00:00+0800
1天前
查看轨道信息
半长轴 7155.804km 7155.787km
偏心率 0.0001919 0.0001973
轨道倾角 86.395° 86.395°
近地点辐角 99.443° 100.034°
升交点赤经 292.445° 293.026°
平近点角 260.699° 277.132°
近地点 776.293km 776.238km
远地点 779.041km 779.062km
周期 100.403分钟 100.403分钟
每日圈数 14.342178 14.342231
详细信息
平衡模式:
三轴稳定
覆盖范围:
全球
运营商:
铱星通信公司
运营商所在国:
美国
制造商(研发单位):
阿莱尼亚宇航公司
制造商所在国:
意大利
使用方式:
暂无
卫星简介
铱星(Iridium)是由共66个运作中的通信卫星组成的卫星通信系统。这个系统原本规划77个通信卫星,所以用原子序数为77的铱元素来命名。铱卫星允许人们使用手持型电子设备进行全球性的语音及数据通讯。该卫星仍在工作。
2D轨道图
3D轨道图
轨道高度分析图
轨道倾角分析图
轨道综合分析图
查看轨道综合分析图